User: anonymous   Login
Location: Unspecified
(0.0000°N, 0.0000°E)
Time: 07:58:34
(UTC+02:00)
Language:

Iridium 4 Rocket - Orbit

View from above orbital plane
View from above orbital plane
View from above satellite
View from above satellite

Ground track
Ground track

The orbit data is extracted from the following two-line orbital elements,

1 24797U 97020F   16243.16231641  .00000195  00000-0  36770-4 0  9999
2 24797  86.8927  99.9851 0224568 207.1151 269.8295 14.43895201 15954
Epoch (UTC): 30 August 2016 03:53:44
Eccentricity: 0.0224568
inclination: 86.8927°
perigee height: 585 km
apogee height: 905 km
right ascension of ascending node: 99.9851°
argument of perigee: 207.1151°
revolutions per day: 14.43895201
mean anomaly at epoch: 269.8295°
orbit number at epoch: 1595

The dashed part of the orbit path shows where the satellite is in the earth's shadow,  

DLR